This demonstration page uses our WeatherBlox Daily Observations layout. Learn more.

Left ArrowRight Arrow

Hourly Observations for December 4, 2021

Temp ( °F °C ) Dew Point ( °F °C ) Humidity (%) Winds ( mph kmh ) Pressure ( in mb ) Visibility ( mi km ) Precip ( " mm )
12:56 am 00:56 Clear 32 0 27 -2.8 82 82 N 5 7 30.27 1025 10 16 0.00 0.00
1:56 am 01:56 Clear 31 -0.6 28 -2.2 89 89 NW 3 6 30.27 1025 10 16 0.00 0.00
2:56 am 02:56 Clear 29 -1.7 26 -3.3 89 89 NNW 7 11 30.29 1026 10 16 0.00 0.00
3:56 am 03:56 Clear 29 -1.7 25 -3.9 85 85 N 5 7 30.29 1026 10 16 0.00 0.00
4:56 am 04:56 Clear 26 -3.3 23 -5 88 88 NNW 3 6 30.31 1026 10 16 0.00 0.00
5:31 am 05:31 Mostly Cloudy 28 -2 27 -3 93 93 N 6 9 30.39 1029 10 16 0.00 0.00
5:56 am 05:56 Cloudy 28 -2.2 26 -3.3 92 92 NE 8 13 30.33 1027 10 16 0.00 0.00
6:06 am 06:06 Cloudy 28 -2 28 -2 100 100 NE 9 15 30.40 1029 10 16 0.00 0.00
6:56 am 06:56 Cloudy 33 0.6 32 0 96 96 ENE 12 19 30.34 1027 8 13 0.00 0.00
7:44 am 07:44 Cloudy with Mist and Fog 34 1 32 0 93 93 E 10 17 30.38 1029 2 3 0.00 0.00
7:56 am 07:56 Cloudy with Mist and Fog 33 0.6 32 0 96 96 E 9 15 30.34 1027 2 2 0.00 0.00
8:05 am 08:05 Cloudy with Mist and Fog 34 1 32 0 93 93 E 9 15 30.38 1029 2 2 0.00 0.00
8:56 am 08:56 Cloudy with Mist and Fog 33 0.6 32 0 96 96 E 12 19 30.35 1028 1 2 0.00 0.00
9:16 am 09:16 Cloudy with Light Wintry Mix 34 1 32 0 93 93 E 14 22 30.39 1029 1 1 0.00 0.00
9:23 am 09:23 Cloudy with Light Wintry Mix 34 1 32 0 93 93 E 13 20 30.38 1029 1 1 0.00 0.00
9:30 am 09:30 Cloudy with Light Wintry Mix 34 1 32 0 93 93 ESE 13 20 30.37 1029 1 2 0.00 0.00
9:44 am 09:44 Cloudy with Light Wintry Mix 34 1 32 0 93 93 ESE 15 24 30.36 1028 1 1 0.00 0.00
9:56 am 09:56 Cloudy with Light Wintry Mix 33 0.6 32 0 96 96 ESE 15 24 30.33 1027 0 0 0.00 0.00
10:11 am 10:11 Cloudy with Light Wintry Mix 34 1 32 0 93 93 ESE 14 22 30.37 1029 1 1 0.00 0.00
10:23 am 10:23 Cloudy with Light Wintry Mix 34 1 32 0 93 93 ESE 13 20 30.38 1029 1 2 0.00 0.00
10:33 am 10:33 Cloudy with Light Wintry Mix 34 1 32 0 93 93 ESE 12 19 30.38 1029 1 1 0.00 0.00
10:51 am 10:51 Cloudy with Light Wintry Mix 34 1 32 0 93 93 SE 12 19 30.37 1029 1 2 0.00 0.00
10:56 am 10:56 Cloudy with Mist and Fog 34 1.1 33 0.6 97 97 ESE 12 19 30.34 1027 1 2 0.00 0.00
11:12 am 11:12 Cloudy with Mist and Fog 34 1 34 1 100 100 SE 14 22 30.36 1028 3 5 0.00 0.00
11:46 am 11:46 Cloudy with Mist and Fog 36 2 34 1 93 93 ESE 12 19 30.36 1028 4 6 0.00 0.00
11:56 am 11:56 Cloudy with Mist and Fog 36 2.2 34 1.1 93 93 ESE 12 19 30.34 1027 5 8 0.00 0.00
12:12 pm 12:12 Cloudy 36 2 34 1 93 93 SSE 15 24 30.32 1027 8 13 0.00 0.00
12:56 pm 12:56 Cloudy 39 3.9 33 0.6 79 79 SSE 20 31 30.22 1023 10 16 0.00 0.00
1:07 pm 13:07 Mostly Cloudy 39 4 34 1 81 81 SSE 15 24 30.24 1024 10 16 0.00 0.00
1:41 pm 13:41 Partly Cloudy 41 5 34 1 76 76 SE 12 19 30.24 1024 10 16 0.00 0.00
1:56 pm 13:56 Partly Cloudy 41 5 32 0 70 70 ESE 9 15 30.23 1024 10 16 0.00 0.00
2:56 pm 14:56 Sunny 43 6.1 32 0 65 65 SSE 13 20 30.17 1022 10 16 0.00 0.00
3:56 pm 15:56 Sunny 41 5 32 0 70 70 ESE 14 22 30.16 1021 10 16 0.00 0.00
4:56 pm 16:56 Sunny 39 3.9 32 0 76 76 ESE 13 20 30.14 1021 10 16 0.00 0.00
5:56 pm 17:56 Clear 35 1.7 31 -0.6 85 85 ESE 12 19 30.11 1020 9 14 0.00 0.00
6:56 pm 18:56 Clear 33 0.6 31 -0.6 92 92 SE 13 20 30.07 1018 7 11 0.00 0.00
7:56 pm 19:56 Clear 35 1.7 31 -0.6 85 85 SSE 16 26 30.02 1017 10 16 0.00 0.00
8:56 pm 20:56 Clear 35 1.7 31 -0.6 85 85 SSE 13 20 30.02 1017 10 16 0.00 0.00
9:56 pm 21:56 Clear 34 1.1 31 -0.6 89 89 S 13 20 29.99 1016 10 16 0.00 0.00
10:56 pm 22:56 Clear 34 1.1 30 -1.1 85 85 S 14 22 29.95 1014 10 16 0.00 0.00
11:56 pm 23:56 Clear 33 0.6 30 -1.1 89 89 S 13 20 29.90 1013 10 16 0.00 0.00

Powered by AerisWeather